STARLINK-34853 (65892 NORAD) Tracking and Keplerian Element Data

This shows tracking and keplerian element data for the satellite.

Feedback or suggestion? Click here.




ElementValue
Catalog65892
NameSTARLINK-34853
Epoch Orbit1252
Epoch Day353.47396545
Epoch Year2025
RAAN23.8962
Inclination53.1623
Eccentricity0.0001552
Argument of Perigee141.8987
Mean Anonmoly218.2124
Mean Motion15.30210012
Decay Rate0.00013512
L11 65892U 25224L 25353.47396545 .00013512 00000+0 46735-3 0 9995
L22 65892 53.1623 23.8962 0001552 141.8987 218.2124 15.30210012 12528



Live tracking and technical data element details for STARLINK-34853 (NORAD 65892). STARLINK-34853 can be tracked NOW for your location showing map with azimuth and elevation plus other details from your city location.







IsCatalogInMostPopularTable: catalog: 65892, numindb: 5
Update: records affected: 1



GetName: 65892 STARLINK-34853

Hit Count: updated at: Tue, 10 Feb 2026 02:33:49 GMT